Location: Rooftop Observatory
(39.0308°N, 87.1711°W)
Time: 12:55:36
(UTC-05:00)

Terra - Visible Passes

Search period start: 29 July 2015 00:00
Search period end: 08 August 2015 00:00
Orbit: 701 x 703 km, 98.2° (Epoch: 29 July)

Date Brightness Start Highest point End Pass type
(mag) Time Alt. Az. Time Alt. Az. Time Alt. Az.
29 Jul 2.1 22:28:05 49° E 22:28:23 50° ENE 22:33:01 10° N visible
30 Jul 4.1 00:06:58 15° W 00:06:58 15° W 00:09:14 10° NW visible
30 Jul 3.7 21:32:31 13° E 21:33:46 15° ENE 21:36:32 10° NNE visible
30 Jul 2.2 23:11:24 56° W 23:11:24 56° W 23:15:49 10° NNW visible
31 Jul 2.5 22:15:51 37° E 22:16:13 38° ENE 22:20:38 10° N visible
31 Jul 3.8 23:54:44 20° W 23:54:44 20° W 23:57:39 10° NW visible
01 Aug 4.0 21:20:21 10° E 21:21:41 11° ENE 21:23:16 10° NE visible
01 Aug 1.9 22:59:10 74° WNW 22:59:10 74° WNW 23:03:39 10° NNW visible
02 Aug 2.9 22:03:37 28° E 22:04:04 29° ENE 22:08:11 10° N visible
02 Aug 3.5 23:42:30 26° W 23:42:30 26° W 23:45:50 10° NW visible
03 Aug 1.8 22:46:57 75° NNE 22:46:57 75° NNE 22:51:25 10° N visible
04 Aug 3.2 21:51:24 22° ENE 21:51:55 22° ENE 21:55:37 10° NNE visible
04 Aug 3.1 23:30:17 34° WNW 23:30:17 34° WNW 23:33:53 10° NNW visible
05 Aug 2.0 22:34:44 57° ENE 22:34:44 57° ENE 22:39:09 10° N visible
06 Aug 4.4 00:13:37 13° WNW 00:13:37 13° WNW 00:14:51 10° WNW visible
06 Aug 3.6 21:39:11 17° ENE 21:39:48 17° ENE 21:42:55 10° NNE visible
06 Aug 2.7 23:18:04 44° WNW 23:18:04 44° WNW 23:21:50 10° NNW visible
07 Aug 2.4 22:22:31 43° ENE 22:22:31 43° ENE 22:26:48 10° N visible
